EXPRESS-AT2

Last updated on Fri Dec 19 2025 00:02:51 GMT+0000 (Coordinated Universal Time)

1 39613U 14010B 25352.65301522 -.00000256 00000+0 00000+0 0 9991 2 39613 0.0134 295.2990 0000998 351.5774 175.5782 1.00272078 42699
UTC large
Height (km)
Speed (km/s)
/
Latitude / Longitude
Inclination (degrees)
Orbital Period (minutes)
Azimuth
Elevation
Range (km)
Doppler Factor

Next 0 passes for location: London (51.5072 / 0.1276)

Sorry there are no passes over London.